Regional Weather Roundup
Issued by NWS Jackson, KY

Home | Current Version | Previous Version | Graphics & Text | Print | Product List | Glossary On
Versions: 1 2 3 4 5 6 7 8 9 10 11 12 13 14 15 16 17 18 19 20 21 22 23 24 25 26 27 28 29 30 31 32 33 34 35 36 37 38 39 40 41 42 43 44 45 46 47 48 49 50
000
ASUS43 KJKL 201810
RWRJKL

EAST KENTUCKY HOURLY WEATHER ROUNDUP
NATIONAL WEATHER SERVICE JACKSON KY
200 PM EDT SUN AUG 20 2017

NOTE: "FAIR" INDICATES FEW OR NO CLOUDS BELOW 12,000 FEET WITH
NO SIGNIFICANT WEATHER AND/OR OBSTRUCTIONS TO VISIBILITY.

* THESE REPORTS ARE NOT UNDER NWS QUALITY CONTROL AND MAY NOT
  REPORT WEATHER SUCH AS PRECIPITATION AND FOG.

KYZ079-080-083-085-087-088-110-112-115-119-120-201900
...EASTERN KENTUCKY...

CITY           SKY/WX    TMP DP  RH WIND       PRES   REMARKS
JACKSON        MOSUNNY   85  68  56 CALM      30.16S
6HR MIN TEMP:  69; 6HR MAX TEMP:  86;

LONDON         SUNNY     85  65  51 S6        30.15F
6HR MIN TEMP:  67; 6HR MAX TEMP:  86;

SOMERSET*      PTSUNNY   84  64  51 W5        30.14F
MONTICELLO*    SUNNY     88  69  53 W13       30.15F HX  92
6HR MIN TEMP:  67; 6HR MAX TEMP:  88;

WILLIAMSBURG*  CLEAR     86  68  54 SE3       30.14F
MIDDLESBORO*   SUNNY     87  67  50 SE5       30.15F HX  90
6HR MIN TEMP:  65; 6HR MAX TEMP:  87;

HARLAN APT*    PTCLDY    86  68  54 CALM      30.16F
PIKE CO APT*     N/A     83  67  58 CALM      30.16F
BIG SANDY APT* PTCLDY    85  69  58 S7        30.15F
6HR MIN TEMP:  69; 6HR MAX TEMP:  86;

MOREHEAD APT*  CLEAR     86  68  54 VRB5G12   30.14F
$$

KYZ035-036-041-042-044-050-067-078-099-201900
...CENTRAL KENTUCKY...

CITY           SKY/WX    TMP DP  RH WIND       PRES   REMARKS
MT STERLING*   MOSUNNY   86  68  54 W5        30.15S
FLEMING/MASON* MOSUNNY   88  69  54 S9        30.12F HX  92
DANVILLE*      SUNNY     88  68  51 SW5       30.13F HX  91
LEXINGTON      MOSUNNY   87  65  47 SW6       30.12F
6HR MIN TEMP:  70; 6HR MAX TEMP:  87;

FRANKFORT      MOSUNNY   88  66  48 S9        30.10S HX  90
6HR MIN TEMP:  69; 6HR MAX TEMP:  89;

LOUISVILLE     PTSUNNY   87  69  54 SW9       30.08F HX  91
6HR MIN TEMP:  73; 6HR MAX TEMP:  90;

LEBANON*         N/A     88  68  51 SW6       30.12S HX  91
GLASGOW*       MOSUNNY   91  67  44 S3        30.11F HX  93
BOWLING GREEN  CLOUDY    89  67  47 CALM      30.09F HX  92
6HR MIN TEMP:  70; 6HR MAX TEMP:  91;

$$

KYZ091>093-OHZ055-061-077-WVZ005-015-034-035-042-201900
...SOUTHERN OHIO/WEST VIRGINIA...

CITY           SKY/WX    TMP DP  RH WIND       PRES   REMARKS
COVINGTON      MOSUNNY   86  68  54 SW6       30.10S
COLUMBUS       PTSUNNY   85  69  58 SE7       30.11F
DAYTON         MOSUNNY   86  67  52 S9        30.11S
WILMINGTON     MOSUNNY   86  71  60 SW12      30.10F HX  91
HUNTINGTON     SUNNY     88  67  49 S9        30.12S HX  91
CHARLESTON     MOSUNNY   88  65  46 VRB6      30.13F HX  90
PINEVILLE*     SUNNY     86  61  42 MISG      30.23F
BECKLEY        MOSUNNY   81  59  47 NW7       30.22S
BLUEFIELD      MOSUNNY   80  61  52 N6        30.25S
LOGAN CO APT*    N/A     84  68  58 CALM      30.17F
$$

VAZ002-007-008-TNZ017-027-036-066-071-201900
...SOUTHWEST VIRGINIA/EAST TENNESSEE...

CITY           SKY/WX    TMP DP  RH WIND       PRES   REMARKS
WISE*          CLOUDY    81  63  54 NE3       30.25S
JONESVILLE*      N/A     86  66  51 CALM      30.18
ABINGDON*      MOSUNNY   85  64  50 CALM      30.20F
BRISTOL        MOSUNNY   87  65  47 CALM      30.17S
MORRISTOWN*    CLEAR     86  68  54 VRB7      30.14F
SEVIERVILLE*   CLEAR     88  63  42 VRB3      30.12S
KNOXVILLE      MOSUNNY   87  66  49 VRB5      30.13S
LAFOLLETTE*    PTCLDY    86  66  51 VRB5      30.17F
OAK RIDGE      MOSUNNY   87  67  51 VRB3      30.14F HX  90
CROSSVILLE     SUNNY     85  65  51 VRB3      30.18F
NASHVILLE      PTSUNNY   91  71  51 E7        30.10F HX  97
$$

...KEY TO REMARKS...
VSB - VISIBILITY IN MILES
WCI - WIND CHILL INDEX
HX  - HEAT INDEX

$$



USA.gov is the U.S. government's official web portal to all federal, state and local government web resources and services.